Regional Weather Roundup
Issued by NWS

Home | Current Version | Previous Version | Text Only | Print | Product List | Glossary Off
Versions: 1 2 3 4 5 6 7 8 9 10 11 12 13 14 15 16 17 18 19 20 21 22 23 24 25 26 27 28 29 30 31 32 33 34 35 36 37 38 39 40 41 42 43 44 45 46 47 48 49 50

000
ASUS43 KLSX 191007
RWRMO

WEATHER SUMMARY FOR MISSOURI
NATIONAL WEATHER SERVICE SPRINGFIELD MO
400 AM CST MON FEB 19 2018

NOTE: "FAIR" INDICATES FEW OR NO CLOUDS BELOW 12,000 FEET WITH NO
       SIGNIFICANT WEATHER AND/OR OBSTRUCTIONS TO VISIBILITY.
       CURRENT SKY AND/OR WEATHER CONDITIONS ARE NOT AVAILABLE FOR
       CHILLICOTHE AND FARMINGTON.

MOZ001>031-035>038-043-044-053-054-191100-
...NORTHERN AND WESTERN MISSOURI...

CITY           SKY/WX    TMP DP  RH WIND       PRES   REMARKS
KANSAS CTY INT CLOUDY    60  57  89 S24G35    29.60F
KANSAS C DTWN  CLOUDY    62  56  80 S18G25    29.62F
LEE`S SUMMIT   CLOUDY    60  59  96 S23G37    29.64F
ST JOSEPH      CLOUDY    54  54 100 CALM      29.62R FOG
CHILLICOTHE      N/A     51  50  96 SE7       29.67F
KIRKSVILLE     CLOUDY    46  46 100 E7        29.72S FOG

$$
MOZ066>068-077>081-088>096-101>105-191100-
...SOUTHWEST MISSOURI...

CITY           SKY/WX    TMP DP  RH WIND       PRES   REMARKS
SPRINGFIELD    CLOUDY    55  53  93 S17       29.81F
JOPLIN         CLOUDY    62  59  90 S28G39    29.76S

$$
MOZ032>034-039>042-045>050-055>058-069>072-191100-
...CENTRAL MISSOURI...

CITY           SKY/WX    TMP DP  RH WIND       PRES   REMARKS
COLUMBIA       CLOUDY    57  52  83 S20       29.75S
JEFFERSON CITY CLOUDY    59  52  77 S16G26    29.78S
ROLLA          CLOUDY    57  54  89 S21G29    29.83F
SEDALIA        CLOUDY    61  57  87 S21G33    29.71F
WHITEMAN AFB   CLOUDY    62  58  88 SW23G29   29.64F
WARRENSBURG    CLOUDY    61  55  82 S22G28    29.68S
OSAGE BEACH    CLOUDY    57  53  86 S12       29.81R

$$
MOZ051-052-059>065-191100-
...EAST CENTRAL MISSOURI...

CITY           SKY/WX    TMP DP  RH WIND       PRES   REMARKS
ST LOUIS INTL  CLOUDY    56  53  90 S10G22    29.85F
SPIRIT OF STL  CLOUDY    58  53  84 CALM      29.84F
ST CHARLES     CLOUDY    56  51  84 S12       29.84F

$$
MOZ072>076-082>087-097>100-106>115-191100-
...SOUTH CENTRAL AND SOUTHEAST MISSOURI...

CITY           SKY/WX    TMP DP  RH WIND       PRES   REMARKS
CAPE GIRARDEAU CLOUDY    54  53  97 S12       30.01F FOG
FARMINGTON     CLOUDY    53  52  96 S13G20    29.94R FOG
POPLAR BLUFF   FOG       55  55 100 S12       30.00F VSB 3/4
WEST PLAINS    FOG       52  52 100 S10G21    29.94R VSB 3/4

$$



USA.gov is the U.S. government's official web portal to all federal, state and local government web resources and services.